Location: Zlin
(49.2330°N, 17.6670°E)
Time: 02:31:19
(UTC+01:00)

ISS - Pass Details

Date: 04 October 2020
Orbit: 417 x 420 km, 51.6° (Epoch: 25 October)

Event Time Altitude Azimuth Distance (km) Brightness Sun altitude
Rises 20:20:54 0° 285° (WNW) 2,369 1.7 -20.2°
Reaches altitude 10° 20:23:25 10° 267° (W) 1,502 0.0 -20.6°
Maximum altitude 20:25:51 19° 220° (SW) 1,081 -1.5 -21.0°
Enters shadow 20:26:34 18° 203° (SSW) 1,123 -1.6 -21.1°
